Jackson, MN

3:34 AM CST on November 17, 2019 (GMT -0600)
Jackson Municipal

Weather History for KMJQ - August, 2019

Change the Weather History Date:

Tuesday, August 13, 2019

  Actual Average Record
Temperature  
Mean Temperature 71 °F -  
Max Temperature 80 °F 76 °F 91 °F (2007)
Min Temperature 62 °F 56 °F 48 °F (1999)
Cooling Degree Days 6    
Growing Degree Days 21 (Base 50)    
Moisture  
Dew Point 61 °F    
Average Humidity 78    
Maximum Humidity 100    
Minimum Humidity 42    
Precipitation  
Precipitation 0.00 in - - ()
Sea Level Pressure  
Sea Level Pressure 29.97 in    
Wind  
Wind Speed 6 mph (WNW)    
Max Wind Speed 21 mph    
Max Gust Speed 29 mph    
Visibility 7 miles    
Events      
Averages and records for this station are not official NWS values.
T = Trace of Precipitation, MM = Missing Value Source: NWS Daily Summary

Daily Weather History Graph

Daily Weather History Graph

Search for Another Location

Airport or City:

Astronomy

Aug. 13, 2019 Rise Set
Actual Time 6:22 AM CDT 8:26 PM CDT
Civil Twilight 5:50 AM CDT 8:58 PM CDT
Nautical Twilight 5:12 AM CDT 9:36 PM CDT
Astronomical Twilight 4:29 AM CDT 10:18 PM CDT
Moon 7:45 PM CDT (8/13) 4:20 AM CDT (8/13)
Length of Visible Light 15h 07m
Length of Day
14h 04m
Waxing Gibbous, 97% of the Moon is Illuminated
Aug 13
Waxing Gibbous
Aug 15
Full
Aug 23
Last Quarter
Aug 30
New
Sep 5
First Quarter

Hourly Weather History & Observations

Time (CDT) Temp. Heat Index Dew Point Humidity Pressure Visibility Wind Dir Wind Speed Gust Speed Precip Events Conditions
12:15 AM 64.4 °F - 64.4 °F 100% 29.91 in 5.0 mi Calm Calm - N/A   Mostly Cloudy
12:16 AM 64.4 °F - 64.4 °F 100% 29.91 in 5.0 mi Calm Calm - N/A   Mostly Cloudy
12:35 AM 64.4 °F - 64.4 °F 100% 29.91 in 7.0 mi Calm Calm - N/A   Scattered Clouds
12:55 AM 64.4 °F - 64.4 °F 100% 29.91 in 0.2 mi Calm Calm - N/A   Unknown
1:15 AM 64.4 °F - 64.4 °F 100% 29.91 in 3.0 mi Calm Calm - N/A   Clear
1:16 AM 64.4 °F - 64.4 °F 100% 29.91 in 4.0 mi Calm Calm - N/A   Clear
1:35 AM 62.6 °F - 62.6 °F 100% 29.91 in 5.0 mi Calm Calm - N/A   Clear
1:55 AM 62.6 °F - 62.6 °F 100% 29.91 in 0.5 mi West 4.6 mph - N/A   Unknown
2:15 AM 62.6 °F - 62.6 °F 100% 29.91 in 3.0 mi Calm Calm - N/A   Clear
2:16 AM 62.6 °F - 62.6 °F 100% 29.91 in 3.0 mi Calm Calm - N/A   Clear
2:35 AM 62.6 °F - 62.6 °F 100% 29.91 in 0.8 mi West 3.5 mph - N/A   Overcast
2:55 AM 64.4 °F - 64.4 °F 100% 29.91 in 5.0 mi Calm Calm - N/A   Overcast
3:15 AM 64.4 °F - 64.4 °F 100% 29.91 in 2.5 mi Calm Calm - N/A   Scattered Clouds
3:35 AM 62.6 °F - 62.6 °F 100% 29.91 in 1.5 mi WSW 4.6 mph - N/A   Unknown
3:55 AM 62.6 °F - 62.6 °F 100% 29.92 in 3.0 mi Calm Calm - N/A   Clear
4:15 AM 62.6 °F - 62.6 °F 100% 29.92 in 0.2 mi West 3.5 mph - N/A   Overcast
4:35 AM 62.6 °F - 62.6 °F 100% 29.92 in 0.2 mi West 4.6 mph - N/A   Overcast
4:55 AM 62.6 °F - 62.6 °F 100% 29.92 in 0.2 mi Calm Calm - N/A   Overcast
5:15 AM 62.6 °F - 62.6 °F 100% 29.93 in 0.2 mi West 4.6 mph - N/A   Overcast
5:35 AM 62.6 °F - 62.6 °F 100% 29.94 in 0.2 mi West 4.6 mph - N/A   Overcast
5:55 AM 62.6 °F - 62.6 °F 100% 29.94 in 1.5 mi WNW 4.6 mph - N/A   Overcast
6:15 AM 64.4 °F - 64.4 °F 100% 29.95 in 5.0 mi WNW 5.8 mph - N/A   Overcast
6:35 AM 64.4 °F - 64.4 °F 100% 29.96 in 0.2 mi WNW 5.8 mph - N/A   Overcast
6:36 AM 64.4 °F - 64.4 °F 100% 29.96 in 0.2 mi WNW 6.9 mph - N/A   Overcast
6:55 AM 64.4 °F - 64.4 °F 100% 29.97 in 0.2 mi WNW 6.9 mph - N/A   Overcast
7:15 AM 62.6 °F - 62.6 °F 100% 29.97 in 0.5 mi West 8.1 mph - N/A   Overcast
7:16 AM 62.6 °F - 62.6 °F 100% 29.97 in 0.5 mi West 8.1 mph - N/A   Overcast
7:35 AM 62.6 °F - 62.6 °F 100% 29.98 in 3.0 mi West 6.9 mph - N/A   Overcast
7:55 AM 62.6 °F - 62.6 °F 100% 29.98 in 4.0 mi WNW 5.8 mph - N/A   Overcast
8:15 AM 64.4 °F - 64.4 °F 100% 29.98 in 7.0 mi NW 8.1 mph - N/A   Overcast
8:16 AM 64.4 °F - 64.4 °F 100% 29.98 in 7.0 mi NW 6.9 mph - N/A   Overcast
8:35 AM 64.4 °F - 64.4 °F 100% 29.98 in 7.0 mi NW 6.9 mph - N/A   Scattered Clouds
8:55 AM 64.4 °F - 64.4 °F 100% 29.98 in 10.0 mi NW 9.2 mph - N/A   Clear
9:15 AM 66.2 °F - 66.2 °F 100% 29.98 in 10.0 mi NW 6.9 mph - N/A   Clear
9:16 AM 66.2 °F - 66.2 °F 100% 29.98 in 10.0 mi NW 6.9 mph - N/A   Clear
9:35 AM 68.0 °F - 64.4 °F 88% 29.98 in 10.0 mi West 5.8 mph - N/A   Scattered Clouds
9:55 AM 68.0 °F - 62.6 °F 83% 29.98 in 10.0 mi NW 4.6 mph - N/A   Clear
10:15 AM 71.6 °F - 62.6 °F 73% 29.99 in 10.0 mi West 4.6 mph - N/A   Clear
10:16 AM 71.6 °F - 62.6 °F 73% 29.99 in 10.0 mi West 4.6 mph - N/A   Clear
10:35 AM 73.4 °F - 64.4 °F 73% 29.99 in 10.0 mi West 6.9 mph - N/A   Clear
10:55 AM 75.2 °F - 62.6 °F 65% 29.99 in 10.0 mi West 8.1 mph - N/A   Clear
11:15 AM 77.0 °F - 62.6 °F 61% 29.99 in 10.0 mi West 11.5 mph - N/A   Clear
11:35 AM 77.0 °F - 64.4 °F 65% 29.99 in 10.0 mi West 12.7 mph 18.4 mph N/A   Clear
11:55 AM 78.8 °F - 62.6 °F 57% 29.99 in 10.0 mi West 15.0 mph - N/A   Clear
12:15 PM 78.8 °F - 60.8 °F 54% 29.98 in 10.0 mi West 13.8 mph 18.4 mph N/A   Clear
12:35 PM 78.8 °F - 59.0 °F 51% 29.98 in 10.0 mi West 11.5 mph 17.3 mph N/A   Clear
12:55 PM 78.8 °F - 59.0 °F 51% 29.98 in 10.0 mi West 11.5 mph 16.1 mph N/A   Clear
1:15 PM 80.6 °F 81.1 °F 59.0 °F 48% 29.98 in 10.0 mi West 8.1 mph - N/A   Clear
1:35 PM 80.6 °F 81.1 °F 59.0 °F 48% 29.97 in 10.0 mi West 10.4 mph - N/A   Clear
1:55 PM 80.6 °F 81.5 °F 60.8 °F 51% 29.97 in 10.0 mi West 10.4 mph 17.3 mph N/A   Clear
2:15 PM 80.6 °F 81.5 °F 60.8 °F 51% 29.96 in 10.0 mi WSW 11.5 mph - N/A   Clear
2:35 PM 80.6 °F 81.1 °F 59.0 °F 48% 29.96 in 10.0 mi West 18.4 mph 24.2 mph N/A   Clear
2:55 PM 80.6 °F 80.5 °F 55.4 °F 42% 29.96 in 10.0 mi West 19.6 mph 27.6 mph N/A   Clear
3:15 PM 80.6 °F 80.8 °F 57.2 °F 45% 29.96 in 10.0 mi WNW 16.1 mph 25.3 mph N/A   Clear
3:35 PM 80.6 °F 80.5 °F 55.4 °F 42% 29.96 in 10.0 mi West 20.7 mph 28.8 mph N/A   Clear
3:55 PM 80.6 °F 80.5 °F 55.4 °F 42% 29.95 in 10.0 mi West 17.3 mph 28.8 mph N/A   Clear
4:15 PM 80.6 °F 80.5 °F 55.4 °F 42% 29.95 in 10.0 mi West 19.6 mph 25.3 mph N/A   Clear
4:35 PM 78.8 °F - 55.4 °F 44% 29.96 in 10.0 mi WNW 19.6 mph 28.8 mph N/A   Clear
4:55 PM 78.8 °F - 55.4 °F 44% 29.96 in 10.0 mi WNW 20.7 mph 27.6 mph N/A   Clear
5:15 PM 78.8 °F - 57.2 °F 47% 29.96 in 10.0 mi WNW 19.6 mph 28.8 mph N/A   Clear
5:35 PM 77.0 °F - 57.2 °F 50% 29.96 in 10.0 mi WNW 19.6 mph 27.6 mph N/A   Clear
5:55 PM 77.0 °F - 57.2 °F 50% 29.97 in 10.0 mi NW 17.3 mph 25.3 mph N/A   Scattered Clouds
6:15 PM 75.2 °F - 57.2 °F 53% 29.98 in 10.0 mi WNW 15.0 mph 26.5 mph N/A   Scattered Clouds
6:35 PM 73.4 °F - 55.4 °F 53% 29.98 in 10.0 mi WNW 16.1 mph 27.6 mph N/A   Scattered Clouds
6:55 PM 73.4 °F - 57.2 °F 57% 29.99 in 10.0 mi NW 16.1 mph 20.7 mph N/A   Scattered Clouds
7:15 PM 71.6 °F - 57.2 °F 60% 30.00 in 10.0 mi NW 15.0 mph 24.2 mph N/A   Mostly Cloudy
7:35 PM 69.8 °F - 55.4 °F 60% 30.00 in 10.0 mi NW 15.0 mph 23.0 mph N/A   Scattered Clouds
7:55 PM 68.0 °F - 55.4 °F 64% 30.00 in 10.0 mi WNW 12.7 mph - N/A   Clear
8:15 PM 68.0 °F - 55.4 °F 64% 30.00 in 10.0 mi WNW 9.2 mph - N/A   Clear
8:35 PM 66.2 °F - 55.4 °F 68% 30.01 in 10.0 mi West 5.8 mph - N/A   Clear
8:55 PM 62.6 °F - 55.4 °F 77% 30.01 in 10.0 mi West 5.8 mph - N/A   Clear
9:15 PM 62.6 °F - 57.2 °F 82% 30.02 in 10.0 mi WSW 5.8 mph - N/A   Mostly Cloudy
9:35 PM 64.4 °F - 57.2 °F 77% 30.03 in 10.0 mi WSW 8.1 mph - N/A   Overcast
9:55 PM 64.4 °F - 57.2 °F 77% 30.03 in 10.0 mi West 9.2 mph - N/A   Overcast
10:15 PM 64.4 °F - 57.2 °F 77% 30.03 in 10.0 mi West 9.2 mph - N/A   Overcast
10:35 PM 64.4 °F - 57.2 °F 77% 30.03 in 10.0 mi West 13.8 mph - N/A   Mostly Cloudy
10:55 PM 64.4 °F - 57.2 °F 77% 30.04 in 10.0 mi West 12.7 mph - N/A   Overcast
11:15 PM 64.4 °F - 57.2 °F 77% 30.04 in 10.0 mi WNW 9.2 mph - N/A   Overcast
11:35 PM 64.4 °F - 59.0 °F 83% 30.04 in 10.0 mi WNW 8.1 mph - N/A   Overcast
11:55 PM 64.4 °F - 59.0 °F 83% 30.05 in 10.0 mi West 6.9 mph - N/A   Overcast